Weather History for Faith, SD

Change the Weather History Date:

Sunday, December 29, 2013

  Actual Average Record
Temperature  
Mean Temperature 6 °F 20 °F  
Max Temperature 12 °F 30 °F 55 °F (1999)
Min Temperature 0 °F 11 °F 0 °F (2013)
Degree Days  
Heating Degree Days 59 45  
Month to date heating degree days 1469 1273  
Since 1 July heating degree days 3219 3056  
Cooling Degree Days 0 0  
Month to date cooling degree days 0 0  
Year to date cooling degree days 720 635  
Moisture  
Dew Point 2 °F    
Average Humidity 80    
Maximum Humidity 84    
Minimum Humidity 75    
Precipitation  
Precipitation 0.01 in 0.02 in 0.34 in (2005)
Month to date precipitation 0.73 0.37  
Year to date precipitation 17.06 17.63  
Sea Level Pressure  
Sea Level Pressure 30.33 in    
Wind  
Wind Speed 12 mph (South)    
Max Wind Speed 21 mph    
Max Gust Speed 23 mph    
T = Trace of Precipitation, MM = Missing Value Source: NWS Daily Summary

Daily Weather History Graph

Daily Weather History Graph

Search for Another Location

Airport:

Trip Planner

Search our weather history database for the weather conditions in past years. The results will help you decide how hot, cold, wet, or windy it might be!

Date:

Astronomy

Dec. 29, 2013 Rise Set
Actual Time 7:26 AM MST 4:14 PM MST
Civil Twilight 6:52 AM MST 4:48 PM MST
Nautical Twilight 6:15 AM MST 5:25 PM MST
Astronomical Twilight 5:39 AM MST 6:01 PM MST
Moon 4:08 AM MST (12/29) 1:57 PM MST (12/29)
Length of Visible Light 9h 55m
Length of Day
8h 48m
Waning Crescent, 10% of the Moon is Illuminated
Dec 29
Waning Crescent
Jan 1
New
Jan 7
First Quarter
Jan 15
Full
Jan 23
Last Quarter

Hourly Weather History & Observations

Time (MST) Temp. Windchill Dew Point Humidity Pressure Visibility Wind Dir Wind Speed Gust Speed Precip Events Conditions
12:56 AM -0.0 °F -18.0 °F -5.1 °F 79% 30.57 in - NNW 12.7 mph - N/A   Unknown
1:56 AM 1.0 °F -15.8 °F -5.1 °F 75% 30.57 in - NW 11.5 mph - N/A   Unknown
2:56 AM 1.9 °F -15.5 °F -4.0 °F 76% 30.56 in - NW 12.7 mph - N/A   Unknown
3:56 AM 1.9 °F -17.5 °F -5.1 °F 72% 30.55 in - NW 16.1 mph - N/A   Unknown
4:56 AM 1.9 °F -9.2 °F -5.1 °F 72% 30.54 in - NNW 5.8 mph - N/A   Unknown
5:56 AM 1.9 °F -11.8 °F -4.0 °F 76% 30.53 in - NNW 8.1 mph - N/A   Unknown
6:56 AM 1.9 °F -7.6 °F -4.0 °F 76% 30.52 in - North 4.6 mph - N/A   Unknown
7:56 AM 1.9 °F - -4.0 °F 76% 30.51 in - Calm Calm - N/A   Unknown
8:56 AM 3.9 °F -5.3 °F -2.9 °F 73% 30.48 in - SSE 4.6 mph - N/A   Unknown
9:56 AM 5.0 °F -9.1 °F -2.0 °F 73% 30.48 in - South 9.2 mph - N/A   Unknown
10:56 AM 7.0 °F -9.8 °F 1.0 °F 77% 30.45 in - SSW 13.8 mph - N/A   Unknown
11:56 AM 9.0 °F -7.3 °F 3.0 °F 77% 30.39 in - SSW 13.8 mph - N/A   Unknown
12:56 PM 10.9 °F -4.7 °F 5.0 °F 77% 30.32 in - South 13.8 mph - N/A   Unknown
1:56 PM 12.0 °F -2.0 °F 6.1 °F 77% 30.28 in - South 11.5 mph - N/A   Unknown
2:56 PM 12.0 °F -2.0 °F 6.1 °F 77% 30.25 in - South 11.5 mph - N/A   Unknown
3:56 PM 10.9 °F -3.4 °F 6.1 °F 81% 30.21 in - South 11.5 mph - N/A   Unknown
4:56 PM 10.9 °F -3.4 °F 7.0 °F 84% 30.17 in - SSE 11.5 mph - N/A   Unknown
5:56 PM 10.9 °F -5.4 °F 7.0 °F 84% 30.14 in - SSE 15.0 mph - N/A   Unknown
6:56 PM 10.9 °F -5.4 °F 7.0 °F 84% 30.13 in - SSE 15.0 mph - N/A   Unknown
7:56 PM 12.0 °F -4.0 °F 7.0 °F 80% 30.12 in - SSE 15.0 mph - N/A   Unknown
8:56 PM 12.0 °F -5.6 °F 6.1 °F 77% 30.08 in - SSE 18.4 mph - N/A   Unknown
9:56 PM 12.0 °F -4.5 °F 8.1 °F 84% 30.06 in - South 16.1 mph - N/A   Unknown
10:56 PM 12.0 °F -4.5 °F 8.1 °F 84% 30.04 in - South 16.1 mph - 0.01 in   Unknown
11:56 PM 12.0 °F -4.5 °F 9.0 °F 88% 30.02 in - South 16.1 mph - N/A   Unknown